Probability
0 0 0 0 0 0 0 0 0 0 0 0 0 0 0 0 0 0 0 0 0 0 0 0 0 0 0 0 0 0 0 0 0 0 0 0 0 0 0 0 0 0 0 0 0 0 0 0 0
0 0 0 0 0 0 0 0 0 0 0 0 0 0 0 0 0 0 0 0 0 0 0 0 0 0 0 0 0 0 0 0 0 0 0 0 0 0 0 0 0 0 0 0 0 0 0 0 0
0 0 0 0 0 0 0 0 0 0 0 0 0 0 0 0 0 0 0 0 0 0 0 0 0 0 0 0 0 0 0 0 0 0 0 0 0 0 0 0 0 0 0 0 0 0 0 0 0
0 0 0 0 0 0 0 0 0 0 0 0 0 0 0 0 0 0 0 0 0 0 0 0 0 0 0 0 0 0 0 0 0 0 0 0 0 0 0 0 0 0 0 0 0 0 0 0 0
0 0 0 0 0 0 0 0 0 0 0 0 0 0 0 0 0 0 0 0 0 0 0 0 0 0 0 0 0 0 0 0 0 0 0 0 0 0 0 0 0 0 0 0 0 0 0 0 0
0 0 0 0 0 0 0 0 0 0 0 0 0 0 0 0 0 0 0 0 0 0 0 0 0 0 0 0 0 0 0 0 0 0 0 0 0 0 0 0 0 0 0 0 0 0 0 0 0
0 0 0 0 0 0 0 0 0 0 0 0 0 0 0 0 0 0 0 0 0 0 0 0 0 0 0 0 0 0 0 0 0 0 0 0 0 0 0 0 0 0 0 0 0 0 0 0 0
0 0 0 0 0 0 0 0 0 0 0 0 0 0 0 0 0 0 0 0 0 0 0 0 0 0 0 0 0 0 0 0 0 0 0 0 0 0 0 0 0 0 0 0 0 0 0 0 0
0 0 0 0 0 0 0 0 0 0 0 0 0 0 0 0 0 0 0 0 0 0 0 0 0 0 0 0 0 0 0 0 0 0 0 0 0 0 0 0 0 0 0 1 0 0 0 0 0
0 0 0 0 0 0 0 0 0 0 0 0 0 0 0 0 0 0 0 0 0 0 0 0 0 0 0 0 0 0 0 0 0 0 0 0 0 0 0 0 0 0 0 0 0 0 0 0 0
0 0 0 0 0 0 0 0 0 0 0 0 0 0 0 0 0 0 0 0 0 0 0 0 0 0 0 0 0 0 0 0 0 0 0 1 1 1 1 1 1 1 1 0 0 0 0 0 0
0 0 0 0 0 0 0 0 0 0 0 0 0 0 0 0 0 0 0 0 0 0 0 0 0 0 0 0 0 0 0 0 0 0 0 1 1 2 2 2 2 2 2 1 0 0 0 0 0
0 0 0 0 0 0 0 0 0 0 0 0 0 0 0 0 0 0 0 0 0 0 0 0 0 0 0 0 0 0 0 0 0 0 0 0 1 1 2 3 3 3 3 2 1 0 0 0 0
0 0 0 0 0 0 0 0 0 0 0 0 0 0 0 0 0 0 0 0 0 0 0 0 0 0 0 0 0 0 0 0 0 0 0 0 0 1 2 3 3 3 3 3 2 1 0 0 0
0 0 0 0 0 0 0 0 0 0 0 0 0 0 0 0 0 0 0 0 0 0 0 0 0 0 0 0 0 0 0 0 0 0 0 0 0 1 2 3 3 3 3 3 2 1 0 0 0
0 0 0 0 0 0 0 0 0 0 0 0 0 0 0 0 0 0 0 0 0 0 0 0 0 0 0 0 0 0 0 0 0 0 0 0 0 0 1 3 3 3 3 1 1 0 0 0 0
0 0 0 0 0 0 0 0 0 0 0 0 0 0 0 0 0 0 0 0 0 0 0 0 0 0 0 0 0 0 0 0 0 0 0 0 0 0 1 2 3 3 2 1 0 0 0 0 0
0 0 0 0 0 0 0 0 0 0 0 0 0 0 0 0 0 0 0 0 0 0 0 0 0 0 0 0 0 0 0 0 0 0 0 0 0 0 0 1 2 3 3 1 0 0 0 0 0
0 0 0 0 0 0 0 0 0 0 0 0 0 0 0 0 0 0 0 0 0 0 0 0 0 0 0 0 0 0 0 0 0 0 0 0 0 0 0 0 1 3 3 2 1 0 0 0 0
0 0 0 0 0 0 0 0 0 0 0 0 0 0 0 0 0 0 0 0 0 0 0 0 0 0 0 0 0 0 0 0 0 0 0 0 0 0 0 0 1 2 3 3 1 0 0 0 0
0 0 0 0 0 0 0 0 0 0 0 0 0 0 0 0 0 0 0 0 0 0 0 0 0 0 0 0 0 0 0 0 0 0 0 0 0 0 0 0 0 1 2 3 2 1 0 0 0
0 0 0 0 0 0 0 0 0 0 0 0 0 0 0 0 0 0 0 0 0 0 0 0 0 0 0 0 0 0 0 0 0 0 0 0 0 0 0 0 0 0 1 2 2 1 0 0 0
0 0 0 0 0 0 0 0 0 0 0 0 0 0 0 0 0 0 0 0 0 0 0 0 0 0 0 0 0 0 0 0 0 0 0 0 0 0 0 0 0 0 0 1 2 2 1 0 0
0 0 0 0 0 0 0 0 0 0 0 0 0 0 0 0 0 0 0 0 0 0 0 0 0 0 0 0 0 0 0 0 0 0 0 0 0 0 0 0 0 0 0 0 1 2 2 1 0
0 0 0 0 0 0 0 0 0 0 0 0 0 0 0 0 0 0 0 0 0 0 0 0 0 0 0 0 0 0 0 0 0 0 0 0 0 0 0 0 0 0 0 0 0 1 2 2 1
0 0 0 0 0 0 0 0 0 0 0 0 0 0 0 0 0 0 0 0 0 0 0 0 0 0 0 0 0 1 0 0 0 0 0 0 0 0 0 0 0 0 0 0 0 0 1 2 2
0 0 0 0 0 0 0 0 0 0 0 0 0 0 0 0 0 0 0 0 0 0 0 0 0 0 0 0 0 0 0 0 0 0 0 0 0 0 0 0 0 0 0 0 0 0 1 2 2
0 0 0 0 0 0 0 0 0 0 0 0 0 0 0 0 0 0 0 0 0 0 0 0 0 0 0 0 0 0 0 0 0 0 0 0 0 0 0 0 0 0 0 0 0 0 0 1 1
0 0 0 0 0 0 0 0 0 0 0 0 0 0 0 0 0 0 0 0 0 0 0 0 0 0 0 0 0 0 0 0 0 0 0 0 0 0 0 0 0 0 0 0 0 0 0 0 0
0 0 0 0 0 0 0 0 0 0 0 0 0 0 0 0 0 0 0 0 0 0 0 0 0 0 0 0 0 0 0 0 0 0 0 0 0 0 0 1 1 1 0 0 0 0 0 0 0
Wind_Speed
8 4 3 3 4 2 2 2 1 2 2 3 3 1 2 4 4 5 5 3 5 8 9 10 8 9 10 10 9 9 9 9 9 9 10 10 10 9 9 9 8 8 8 9 9 9 9 9 9
6 3 3 3 4 5 4 2 2 3 3 3 3 2 4 5 5 4 2 3 5 8 8 8 8 8 9 9 9 8 8 8 8 8 9 9 9 9 8 8 8 7 8 8 8 8 8 8 7
3 3 2 2 3 3 4 3 2 3 3 2 3 4 4 5 4 3 2 4 6 8 7 8 7 8 9 9 9 8 7 7 8 7 7 8 8 8 7 7 6 6 6 7 7 7 7 6 6
3 2 2 3 4 1 1 3 3 3 3 3 3 5 5 6 5 4 4 5 7 7 7 8 6 7 8 8 8 7 7 7 7 6 6 7 7 7 6 6 5 5 5 5 6 6 5 5 5
2 2 4 4 4 2 1 1 1 2 2 3 3 5 6 6 7 5 5 5 6 6 6 7 6 5 6 6 6 5 5 5 6 6 6 6 6 6 5 5 4 4 4 4 4 4 4 4 3
2 3 6 7 6 3 2 1 2 3 3 3 3 4 6 6 7 5 5 5 5 5 5 6 5 5 5 5 5 5 4 4 4 5 5 5 5 5 4 4 3 3 3 3 3 3 3 3 2
3 3 5 7 7 4 1 1 2 2 3 4 3 3 4 6 6 4 4 5 5 4 4 4 4 4 4 4 4 4 4 4 4 4 4 4 4 4 4 3 2 2 2 2 2 2 2 1 1
1 3 5 6 7 4 1 2 3 3 4 5 4 3 3 5 3 4 5 5 5 4 3 2 2 3 3 3 3 3 3 3 3 3 4 3 3 3 3 1 2 1 1 1 1 1 1 0 1
2 4 6 6 6 4 2 3 4 4 6 6 6 7 6 4 4 5 5 5 4 3 2 1 1 1 2 2 2 2 2 2 2 2 3 3 2 2 2 0 1 1 1 1 0 0 0 1 2
2 5 5 2 2 4 4 3 3 3 5 5 6 8 7 6 6 6 5 3 3 2 1 1 0 0 1 1 1 1 1 1 2 2 2 2 2 1 1 1 0 1 1 1 1 1 2 3 2
2 4 4 2 3 4 4 4 3 3 4 4 4 5 6 6 6 5 3 2 2 1 1 1 1 1 1 1 1 1 1 1 2 2 2 2 2 1 2 1 1 2 2 2 2 3 3 3 2
4 3 3 3 3 3 3 3 5 5 4 5 4 5 6 6 5 4 3 3 2 2 1 1 1 1 1 1 1 1 1 1 1 2 2 2 2 2 2 2 2 2 2 2 2 2 3 4 4
4 4 5 6 7 6 5 4 4 4 4 5 6 7 6 5 4 4 4 4 3 3 3 2 2 1 1 1 1 1 1 2 2 2 2 2 2 2 2 2 2 3 2 3 3 3 3 4 4
5 6 5 4 5 4 5 3 2 3 3 5 6 6 5 5 5 5 5 5 4 3 3 2 2 2 2 1 1 1 1 1 1 1 2 3 2 2 3 3 3 3 3 3 3 4 4 4 4
5 6 4 2 1 2 3 2 1 2 2 5 5 5 6 6 6 5 4 4 4 4 4 3 2 2 2 2 2 1 1 1 1 1 2 2 3 3 3 3 3 3 3 4 4 4 4 4 4
4 4 4 1 0 1 3 4 1 1 2 3 3 4 5 5 5 5 5 5 5 4 4 4 2 2 2 1 2 1 1 1 1 1 2 2 3 3 3 2 3 3 3 3 3 3 3 4 4
3 5 6 2 1 1 3 3 1 1 2 2 2 2 3 4 6 6 6 5 5 4 4 4 4 3 2 1 1 1 1 2 2 2 2 3 3 3 2 2 3 3 2 2 3 3 4 4 4
6 6 5 3 2 3 4 3 1 2 2 1 1 1 2 3 5 6 6 5 5 5 4 4 4 4 3 1 1 1 1 1 2 2 3 3 3 4 3 2 3 3 2 3 3 4 4 4 4
6 7 5 2 1 2 4 3 1 0 1 0 1 1 2 3 4 5 6 6 5 5 5 5 4 4 3 2 2 1 1 2 2 2 4 4 4 3 3 3 3 3 2 3 4 4 4 4 3
5 6 4 3 3 2 3 2 2 2 2 1 1 1 2 3 4 5 6 6 6 5 5 5 4 4 4 3 2 2 2 1 2 2 3 4 4 4 3 3 3 3 3 3 4 4 3 3 3
4 5 5 3 1 1 2 3 3 3 2 1 1 1 1 2 3 4 4 5 6 6 5 4 5 4 4 3 2 2 2 2 2 3 3 4 4 4 4 3 3 3 2 2 3 3 4 4 4
4 3 5 5 4 2 3 4 5 4 4 3 2 2 2 1 2 2 3 4 5 5 5 5 5 5 4 3 2 2 2 2 3 2 3 4 5 4 4 4 3 3 3 3 3 3 3 4 4
2 2 4 5 3 2 3 5 4 4 6 6 4 3 2 2 2 2 3 4 4 5 5 5 4 5 5 4 3 2 2 2 2 3 3 4 4 5 5 4 4 3 3 4 4 3 3 3 3
2 4 3 3 4 5 6 7 6 5 7 6 4 3 2 1 1 2 3 4 4 5 5 4 4 4 5 4 4 3 3 3 3 4 3 3 3 4 5 5 4 4 3 4 4 3 3 3 4
2 4 3 4 4 5 5 8 7 3 5 6 5 3 2 1 1 2 3 3 4 5 5 4 4 4 4 4 4 3 3 3 3 3 4 4 3 4 5 5 5 4 4 4 4 4 4 3 4
4 4 3 3 4 3 4 9 4 0 2 3 3 2 1 1 1 2 2 3 3 4 4 4 4 4 4 3 3 3 3 2 2 3 3 3 3 3 5 5 5 5 5 5 4 4 4 4 4
3 3 0 1 1 2 5 5 3 2 2 2 2 2 1 1 1 2 2 3 3 3 4 4 4 4 4 4 3 3 3 3 3 3 3 3 3 4 5 5 5 5 5 5 5 4 5 4 4
1 2 3 3 3 4 5 6 5 4 4 4 3 3 2 1 2 2 2 3 3 3 3 4 3 3 3 3 3 3 3 3 3 3 3 3 4 4 4 4 5 5 5 5 5 5 5 5 4
3 4 3 3 2 3 4 4 2 6 5 5 4 2 2 2 2 2 2 2 3 3 3 3 3 3 3 3 3 3 3 3 3 3 3 3 4 4 4 4 4 5 5 5 5 5 6 6 6
3 4 5 4 3 4 4 3 1 3 3 3 2 2 2 2 2 2 2 2 2 3 3 3 3 3 3 3 3 3 3 3 3 4 4 4 4 5 5 5 4 5 5 5 5 6 6 6 6
Wind_Direction
323 307 262 245 227 195 168 119 102 96 79 41 41 58 60 40 11 44 50 113 128 143 146 141 134 135 133 130 126 122 121 123 126 128 124 123 121 117 114 109 105 103 103 104 101 97 94 91 89
316 289 244 245 232 192 157 137 128 67 60 73 77 73 80 63 37 54 69 120 141 142 146 145 124 132 133 133 132 128 126 126 126 125 127 126 123 119 116 112 110 107 107 106 104 101 97 94 92
294 273 261 221 216 207 143 120 101 75 72 56 77 57 43 41 39 45 60 142 141 141 143 129 120 126 135 137 136 135 131 129 127 127 128 128 127 124 118 111 107 106 109 108 106 104 102 99 98
264 209 214 212 177 188 117 93 92 110 95 53 75 89 82 41 16 31 99 136 138 138 138 129 117 123 127 131 137 140 140 137 134 130 130 129 126 128 125 119 112 105 106 107 106 107 107 105 104
249 219 194 191 189 148 85 59 103 97 90 62 73 91 88 40 25 58 101 123 129 131 133 135 115 116 123 126 131 135 139 140 137 131 126 119 118 122 127 127 120 114 111 110 108 107 108 106 105
201 208 207 197 184 163 90 57 112 88 79 59 61 89 86 42 38 57 88 100 109 116 125 130 105 101 107 113 116 116 121 129 136 135 129 121 113 118 117 113 116 124 123 118 116 110 103 102 105
215 200 211 199 186 182 113 53 61 95 85 45 8 81 88 37 29 65 91 93 95 99 110 126 138 130 106 97 100 100 102 107 114 118 114 108 102 105 94 92 96 113 125 128 126 117 117 116 128
260 188 193 201 191 185 89 95 50 33 64 49 29 46 47 10 28 77 88 86 86 88 91 108 133 145 148 147 102 89 88 92 97 103 103 104 109 116 101 107 80 77 80 106 134 121 123 173 164
215 199 199 196 191 164 101 110 64 55 83 71 51 35 28 56 82 81 73 72 74 73 74 88 111 127 161 168 131 127 106 94 120 140 124 147 182 179 167 124 48 23 35 45 306 234 247 236 195
186 204 201 168 149 135 103 85 76 101 84 64 47 38 52 74 82 81 76 74 73 69 65 62 106 151 177 181 181 204 208 193 218 218 200 209 216 208 229 120 44 342 336 291 284 274 228 241 242
149 177 151 111 111 124 119 81 58 117 73 31 24 45 61 69 73 75 76 75 72 68 58 29 342 280 237 212 216 220 238 249 250 249 239 239 232 224 230 219 207 234 245 253 247 246 258 266 273
125 106 120 115 105 111 111 115 87 65 49 33 49 74 77 76 71 61 57 46 35 27 9 356 332 313 293 283 253 243 242 251 268 275 259 249 243 240 237 242 257 260 259 268 269 270 276 273 272
133 122 99 94 94 94 97 101 98 58 37 52 67 73 71 73 63 48 40 37 30 11 354 342 340 320 304 289 303 292 268 260 263 277 269 262 258 254 248 248 254 262 267 266 268 271 277 276 275
129 124 109 91 102 92 92 76 87 39 44 68 67 64 59 54 45 43 33 24 17 2 351 344 346 340 335 319 308 302 309 304 302 308 302 276 267 262 260 261 260 261 263 268 270 276 276 276 276
132 128 108 63 119 155 128 80 43 20 66 73 64 57 53 45 40 36 24 14 8 3 357 354 356 356 345 323 302 297 300 306 312 317 325 316 297 283 270 269 274 276 273 270 268 270 271 274 274
151 164 165 101 142 202 183 194 125 38 91 72 60 53 49 42 34 25 16 9 5 5 8 2 9 1 344 327 311 307 317 322 311 309 312 310 303 296 286 290 291 295 286 278 271 268 268 272 275
156 184 186 156 57 147 179 198 44 44 115 83 52 42 37 29 24 21 14 9 6 5 8 11 10 1 340 325 330 334 350 359 350 349 344 337 329 318 297 295 304 308 300 294 292 284 278 281 281
175 177 179 169 88 128 154 169 83 54 120 123 61 26 20 13 8 8 10 11 10 11 11 12 13 6 355 346 343 7 17 7 0 358 352 350 345 340 328 321 319 315 317 323 316 297 295 286 287
159 162 157 152 116 134 161 175 189 175 160 146 336 338 344 352 1 11 14 15 17 18 16 12 10 4 3 3 359 351 352 356 2 6 359 353 351 348 342 342 343 341 334 328 327 320 309 309 308
152 148 142 108 75 120 154 222 239 219 222 218 239 307 322 341 357 9 11 13 15 12 13 10 5 3 4 1 358 1 360 357 2 5 3 358 351 349 345 345 340 339 337 340 343 340 326 321 324
175 184 176 154 75 98 192 229 219 212 219 239 285 303 315 329 335 352 3 9 13 10 4 4 3 3 4 4 24 40 42 29 23 11 5 2 355 356 355 346 338 336 330 325 334 336 329 316 316
209 216 188 175 185 186 232 241 216 216 216 226 247 269 281 297 307 327 345 356 1 359 360 3 3 3 7 10 22 28 38 19 358 355 353 355 358 355 351 347 341 340 332 326 327 333 318 312 306
201 200 188 191 194 209 213 244 230 196 229 232 234 250 268 279 291 313 338 348 357 359 359 1 10 10 11 15 21 22 20 12 4 8 10 4 2 359 354 350 345 346 340 332 330 329 328 319 307
153 152 152 191 212 228 214 230 243 207 225 223 220 232 255 294 333 349 2 4 5 8 7 4 11 15 14 16 21 20 14 7 5 2 1 360 355 354 359 352 346 343 336 329 323 315 313 311 313
161 170 173 195 213 226 188 225 248 212 218 215 211 218 231 249 336 353 359 1 1 4 8 2 5 11 12 14 17 14 7 2 355 346 350 346 343 346 348 349 345 340 331 323 320 316 315 314 315
196 202 198 212 222 215 190 230 238 153 230 213 210 212 218 243 317 338 345 352 357 358 1 4 4 4 2 4 5 4 2 356 350 346 340 336 333 337 338 341 339 339 339 333 327 317 319 317 307
182 190 319 96 78 227 222 246 263 191 198 196 207 212 227 257 314 330 344 353 355 356 357 359 0 4 1 358 6 6 4 0 353 346 345 341 339 338 342 342 340 340 337 335 332 326 316 306 302
262 157 167 189 212 239 241 237 229 202 218 214 212 223 247 281 313 330 341 345 345 351 356 0 360 357 360 5 5 357 353 351 344 341 343 338 340 340 340 343 340 338 338 337 333 326 324 310 306
187 182 181 176 248 251 250 246 196 208 206 214 219 231 252 273 281 308 325 333 343 353 354 354 354 358 2 4 2 359 358 353 346 343 338 340 341 340 337 336 335 333 332 333 331 325 322 319 309
221 214 198 210 211 234 261 270 86 215 203 200 213 254 285 292 300 315 321 332 341 349 348 344 343 347 348 352 353 352 354 350 347 349 345 344 341 338 337 335 333 329 326 325 323 316 316 312 310